Weather in Zatvornoye

Russia / Ryazan Oblast     53°45′52″N   39°04′12″E
temp.,
°C
wind,
m/s
gust,
m/s
humid.,
%
clouds,
%
prec.,
mm/h
press.,
hPa
HPBL,
m
10 august, wed
wed1000:00+18nne3593100 0.4 1020133
03:00+17nne3696100 1.1 1020157
06:00+17ne369799 1.4 1020201
09:00+19nne3487100 1.6 1020393
12:00+21nne5675100 0.0 1020823
15:00+20ne3577100 0.1 1021386
18:00+20ne4683100 0.3 1020496
21:00+17nne489593 0.3 1021257
11 august, thu
thu1100:00+16ne4996100 0.0 1021239
03:00+15nne3896100 0.0 1022194
06:00+16ne41093100 0.0 1023302
09:00+20ene576797 0.0 1023541
12:00+24ene6754100 0.0 10231014
15:00+26ene564797 0.0 10221197
18:00+24ne475146 0.0 1021497
21:00+19ne49635 0.0 1023156
12 august, fri
fri1200:00+17ne48660 0.0 1023134
03:00+16ene36710 0.0 1024109
06:00+16ene36740 0.0 1025129
09:00+22ene46530 0.0 1024440
12:00+26ene55421 0.0 10241083
15:00+27ene34380 0.0 10221307
18:00+26ne344633 0.0 1022265
21:00+20ne46591 0.0 102379
13 august, sat
sat1300:00+18ene35611 0.0 102369
03:00+17ene47611 0.0 1023105
06:00+17ene356217 0.0 102384
09:00+22e454639 0.0 1023394
12:00+27ene443710 0.0 1022908
15:00+28ene44365 0.0 10211194
18:00+26ne45445 0.0 1020348
21:00+21e4766100 0.3 1020121
14 august, sun
sun1400:00+20ene486495 0.4 1020124
03:00+19e3761100 0.4 1019131
06:00+19e366098 0.0 1020141
09:00+22ese485061 0.0 1019281
12:00+26ese564182 0.0 1019587
15:00+23ene3552100 0.0 1019120
18:00+22ene2251100 0.0 101836
21:00+20ene335865 0.0 101848